Regional Weather Roundup
Issued by NWS

Home | Current Version | Previous Version | Graphics & Text | Print | Product List | Glossary On
Versions: 1 2 3 4 5 6 7 8 9 10 11 12 13 14 15 16 17 18 19 20 21 22 23 24 25 26 27 28 29 30 31 32 33 34 35 36 37 38 39 40 41 42 43 44 45 46 47 48 49 50
000
ASUS45 KBOU 280107
RWRCO

WEATHER ROUNDUP FOR COLORADO
NATIONAL WEATHER SERVICE DENVER/BOULDER CO
700 PM MDT MON APR 27 2015

NOTE: "FAIR" INDICATES FEW OR NO CLOUDS BELOW 12000 FEET WITH NO
SIGNIFICANT WEATHER AND/OR OBSTRUCTIONS TO VISIBILITY.

COZ001>005-013-030-031-280200-
...NORTHWEST COLORADO...

CITY           SKY/WX    TMP DP  RH WIND       PRES   REMARKS
CRAIG          CLOUDY    50  38  63 VRB6      30.18R
HAYDEN         PTSUNNY   45  37  76 S3G16     30.19R
MEEKER         CLOUDY    50  40  68 CALM      30.18S
MOUNT WERNER   NOT AVBL
STEAMBOAT SPGS CLOUDY    46  39  79 S8        30.19R
WALDEN         PTCLDY    43  30  61 N17       30.23R
$$

COZ006>008-011-280200-
...WEST CENTRAL VALLEYS...

CITY           SKY/WX    TMP DP  RH WIND       PRES   REMARKS
GRAND JUNCTION MOSUNNY   59  40  49 N13       30.08R
MONTROSE       MOSUNNY   59  40  49 NW14      30.10R
EAGLE          LGT RAIN  54  37  54 N12       30.19R
RIFLE          MOSUNNY   58  36  43 NW10G20   30.12R
DELTA          CLOUDY    66  39  36 MISG      30.07R
NUCLA          MOSUNNY   61  36  39 NW18G24   30.11R
$$

COZ017>023-064>068-280200-
...SOUTHWEST COLORADO...

CITY           SKY/WX    TMP DP  RH WIND       PRES   REMARKS
DURANGO        LGT RAIN  47  45  93 E12       30.12S
CORTEZ         SUNNY     65  28  24 N12       30.04R
PAGOSA SPRINGS CLOUDY    49  34  56 SW3       30.16R
TELLURIDE      PTSUNNY   45  32  59 SE3       30.20R
WOLF CREEK PAS NOT AVBL
$$

COZ009-010-012-014-032>034-037-058>063-280200-
...CENTRAL COLORADO...

CITY           SKY/WX    TMP DP  RH WIND       PRES   REMARKS
ASPEN          CLOUDY    46  35  65 S7        30.17R
BUENA VISTA    PTCLDY    43  30  59 NE13      30.25R
COPPER MTN     MOCLDY    34  25  69 E6        30.33R WCI  29
BERTHOUD PASS  HAZE      21  14  73 E17G23    30.37R VSB<1/4 WCI   7
COTTONWOOD PAS CLOUDY    37  32  81 E8        30.29S
GUNNISON       PTCLDY    48  28  46 E14       30.18R
KREMMLING      CLOUDY    46  34  61 SW3       30.22R
LEADVILLE      CLOUDY    36  25  64 SE6G20    30.26R
MONARCH PASS   CLOUDY    28  27  93 MISG      30.38S
SALIDA         PTCLDY    44  35  72 SE9G18    30.32R
SUNLIGHT       CLOUDY    37  32  81 CALM      30.32R
WILKERSON PASS SNOW      28  27  93 NE14      30.35R VSB 1/4 WCI  17
$$

COZ069>075-280200-
...SAN LUIS VALLEY/SANGRE DE CRISTO MOUNTAINS...

CITY           SKY/WX    TMP DP  RH WIND       PRES   REMARKS
ALAMOSA        PTCLDY    45  29  53 E16G25    30.17R
LA VETA PASS   FOG       28  27  93 MISG      30.27S VSB 1/4
SAGUACHE       PTCLDY    48  28  46 CALM      30.19R
$$

COZ035-036-038>040-280200-
...NORTHERN COLORADO FRONT RANGE...

CITY           SKY/WX    TMP DP  RH WIND       PRES   REMARKS
DENVER INTL AP CLOUDY    45  39  79 N3        30.28S
DMNS CITY PARK   N/A     46  38  74 NE3       30.28S
AURORA         CLOUDY    44  42  93 E3        30.29S
FRONT RANGE AP MOCLDY    46  43  87 NW5       30.29R
ERIE MUNI ARPT CLOUDY    46  41  81 E6        30.28S
BOULDER MUN AP CLOUDY    45  43  93 NE5       30.28S
CENTENNIAL     CLOUDY    43  38  82 NE3       30.28S
BROOMFIELD     CLOUDY    46  39  76 NE5       30.28S
FORT COLLINS   CLOUDY    46  39  76 E6        30.31R
LONGMONT       CLOUDY    48  42  79 E5        30.31R
$$

COZ041-046-047-076>085-087-088-280200-
...PIKES PEAK/PALMER DIVIDE AND SOUTHERN FOOTHILLS...

CITY           SKY/WX    TMP DP  RH WIND       PRES   REMARKS
COLO. SPRINGS  MOCLDY    45  34  65 NE18      30.28R
A. F. ACADEMY  MOCLDY    42  36  78 NW8       30.28R
ELLICOTT       CLOUDY   N/A N/A N/A NE14      30.26R
FALCON         CLOUDY    41  31  66 N9        30.30R
FORT CARSON    CLOUDY    46  37  69 NE17      30.25R
LIMON          CLOUDY    47  34  60 N14       30.26R
MONUMENT HILL  CLOUDY    36  34  93 NE6       30.29R
TRINIDAD       CLOUDY    45  37  73 N9        30.23R
$$

COZ042>045-048>051-090-091-280200-
...NORTHEAST COLORADO...

CITY           SKY/WX    TMP DP  RH WIND       PRES   REMARKS
GREELEY ARPT   CLOUDY    46  37  71 NW3       30.30R
AKRON          CLOUDY    51  36  56 N8        30.25R
BURLINGTON     MOCLDY    54  29  38 NE17      30.21R
WRAY           MOCLDY    57  32  38 N7        30.21F
STERLING       CLOUDY    54  37  54 E3        30.24R
HOLYOKE        MOCLDY    59  36  41 N9        30.22R
FORT MORGAN    CLOUDY    51  35  53 CALM      30.27R
$$

COZ086-089-092>099-280200-
...SOUTHEAST COLORADO...

CITY           SKY/WX    TMP DP  RH WIND       PRES   REMARKS
PUEBLO         CLOUDY    51  37  58 NE16      30.23R
LA JUNTA       CLOUDY    55  32  41 NE18      30.20R
LAMAR          NOT AVBL
SPRINGFIELD      N/A     47  34  60 NE16      30.16R
$$


USA.gov is the U.S. government's official web portal to all federal, state and local government web resources and services.